This is the latest recevied weather packets stored in our database for station/object IK2ILW-6. If no packets are shown the sender has not sent any weather packets the latest 10 day(s).
| Time | Temp. | Humidity | Pressure | Rain* | Wind** | Luminosity | Snow |
|---|---|---|---|---|---|---|---|
| 1777641995 | 6.67° C | 72% | 1026.9 hPa | 0 mm | - | 800 W/m² | - |
| 1777641685 | 6.67° C | 73% | 1026.9 hPa | 0 mm | - | 807 W/m² | - |
| 1777641390 | 6.67° C | 75% | 1026.9 hPa | 0 mm | - | 816 W/m² | - |
| 1777641093 | 6.67° C | 72% | 1027 hPa | 0 mm | - | 821 W/m² | - |
| 1777640794 | 7.22° C | 75% | 1027 hPa | 0 mm | - | 830 W/m² | - |
| 1777640194 | 6.11° C | 77% | 1027.1 hPa | 0 mm | - | 846 W/m² | - |
| 1777639899 | 6.11° C | 75% | 1027 hPa | 0 mm | - | 853 W/m² | - |
| 1777638698 | 7.22° C | 72% | 1027.2 hPa | 0 mm | - | 875 W/m² | - |
| 1777638388 | 6.11° C | 80% | 1027.1 hPa | 0 mm | - | 877 W/m² | - |
| 1777638094 | 5.56° C | 80% | 1027.1 hPa | 0 mm | - | 882 W/m² | - |
| 1777637799 | 5.56° C | 76% | 1027 hPa | 0 mm | - | 886 W/m² | - |
| 1777637494 | 5.56° C | 78% | 1027 hPa | 0 mm | - | 888 W/m² | - |
| 1777637187 | 5.56° C | 77% | 1027 hPa | 0 mm | - | 893 W/m² | - |
| 1777636895 | 5.56° C | 79% | 1026.9 hPa | 0 mm | - | 893 W/m² | - |
| 1777636593 | 6.11° C | 81% | 1026.9 hPa | 0 mm | - | 898 W/m² | - |
| 1777636296 | 5.56° C | 77% | 1027 hPa | 0 mm | - | 902 W/m² | - |
| 1777636000 | 6.11° C | 79% | 1026.9 hPa | 0 mm | - | 902 W/m² | - |
| 1777635686 | 6.11° C | 76% | 1026.9 hPa | 0 mm | - | 905 W/m² | - |
| 1777635391 | 5.56° C | 78% | 1027 hPa | 0 mm | - | 904 W/m² | - |
| 1777635090 | 5.56° C | 78% | 1026.9 hPa | 0 mm | - | 907 W/m² | - |
| 1777634789 | 5.56° C | 80% | 1027 hPa | 0 mm | - | 905 W/m² | - |
| 1777634495 | 5.56° C | 76% | 1027.1 hPa | 0 mm | - | 904 W/m² | - |
| 1777634185 | 6.11° C | 77% | 1027 hPa | 0 mm | - | 904 W/m² | - |
| 1777633890 | 6.11° C | 82% | 1026.9 hPa | 0 mm | - | 905 W/m² | - |
| 1777633596 | 5° C | 83% | 1026.9 hPa | 0 mm | - | 900 W/m² | - |
* Rain latest hour (hover to see other rain measurements)
** Current wind speed in m/s (hover to see current wind gust speed)